Location: Menands
(42.6920°N, 73.7246°W)
Time: 08:13:58
(UTC+00:00)

Cosmos 2228 - Pass Details

Date: 18 February 2026
Orbit: 564 x 587 km, 82.5° (Epoch: 11 March)

Event Time Altitude Azimuth Distance (km) Brightness Sun altitude
Rises 23:03:14 0° 357° (N) 2,807 6.4 -6.7°
Reaches altitude 10° 23:05:29 10° 3° (N) 1,906 5.5 -7.1°
Maximum altitude 23:09:35 49° 79° (ENE) 760 3.1 -7.8°
Drops below altitude 10° 23:13:39 10° 154° (SSE) 1,903 5.4 -8.6°
Sets 23:15:54 0° 160° (SSE) 2,800 6.3 -9.0°
